Location: D�derode
(51.8092°N, 10.1065°E)
Time: 06:32:50
(UTC+00:00)

H-2A R/B - Pass Details

Date: 01 December 2020
Orbit: 733 x 836 km, 98.2° (Epoch: 23 January)

Event Time Altitude Azimuth Distance (km) Brightness Sun altitude
Exits shadow 17:35:26 34° 125° (SE) 1,284 2.8 -21.1°
Maximum altitude 17:37:24 53° 68° (ENE) 960 2.1 -21.4°
Drops below altitude 10° 17:42:22 10° 353° (N) 2,317 4.5 -22.2°
Sets 17:44:41 0° 349° (N) 3,233 5.3 -22.5°
